Location: Bosdarros
(43.2167°N, 0.3667°W)
Time: 11:26:03
(UTC+00:00)

FENGYUN 1C DEB - Pass Details

Date: 23 October 2021
Orbit: 805 x 871 km, 98.8° (Epoch: 26 November)

Event Time Altitude Azimuth Distance (km) Brightness Sun altitude
Exits shadow 21:00:56 12° 264° (W) 2,250 ? -42.5°
Maximum altitude 21:01:36 12° 272° (W) 2,235 ? -42.6°
Drops below altitude 10° 21:03:40 10° 295° (WNW) 2,393 ? -43.0°
Sets 21:07:40 0° 325° (NW) 3,338 ? -43.6°
